• In Belarus
  • List of Countries
  • For 7 days
  • Water Temperature
  • Satellite Maps
  • Weather Map
  • Weather Widgets
  • user-avatar
    Login

    Hourly Weather Ganja

    Today, 20 January, Saturday

    Time Temperature Precipitation Wind Pressure Humidity
    00:00 +7°C° 0 mm 3 mps 721 mmHg 64%
    01:00 +7°C° 0 mm 3 mps 722 mmHg 66%
    02:00 +7°C° 0 mm 3 mps 722 mmHg 67%
    03:00 +6°C° 0 mm 4 mps 721 mmHg 67%
    04:00 +6°C° 0.3 mm 4 mps 722 mmHg 69%
    05:00 +7°C° 0.3 mm 3 mps 722 mmHg 71%
    06:00 +7°C° 0.3 mm 3 mps 723 mmHg 73%
    07:00 +7°C° 0.1 mm 3 mps 724 mmHg 72%
    08:00 +7°C° 0.1 mm 2 mps 724 mmHg 71%
    09:00 +8°C° 0 mm 2 mps 725 mmHg 70%
    10:00 +8°C° 0 mm 2 mps 725 mmHg 66%
    11:00 +9°C° 0 mm 3 mps 725 mmHg 62%
    12:00 +10°C° 0 mm 3 mps 726 mmHg 58%
    13:00 +10°C° 0 mm 3 mps 726 mmHg 57%
    14:00 +10°C° 0 mm 2 mps 726 mmHg 57%
    15:00 +12°C° 0 mm 1 mps 726 mmHg 56%
    16:00 +10°C° 0 mm 2 mps 727 mmHg 61%
    17:00 +9°C° 0 mm 2 mps 727 mmHg 66%
    18:00 +8°C° 0 mm 2 mps 728 mmHg 71%
    19:00 +7°C° 0 mm 2 mps 728 mmHg 73%
    20:00 +6°C° 0 mm 2 mps 728 mmHg 76%
    21:00 +6°C° 0 mm 2 mps 729 mmHg 78%
    22:00 +6°C° 0 mm 1 mps 729 mmHg 78%
    23:00 +6°C° 0 mm 1 mps 729 mmHg 79%

    Tomorrow, 21 January, Sunday

    Time Temperature Precipitation Wind Pressure Humidity
    00:00 +6°C° 0 mm 1 mps 729 mmHg 79%
    01:00 +6°C° 0 mm 1 mps 729 mmHg 78%
    02:00 +5°C° 0 mm 1 mps 729 mmHg 77%
    03:00 +5°C° 0 mm 1 mps 728 mmHg 76%
    04:00 +5°C° 0 mm 1 mps 728 mmHg 74%
    05:00 +4°C° 0 mm 2 mps 728 mmHg 72%
    06:00 +4°C° 0 mm 2 mps 728 mmHg 70%
    07:00 +5°C° 0 mm 2 mps 728 mmHg 66%
    08:00 +6°C° 0 mm 2 mps 728 mmHg 62%
    09:00 +7°C° 0 mm 2 mps 728 mmHg 58%
    10:00 +8°C° 0 mm 2 mps 727 mmHg 54%
    11:00 +9°C° 0 mm 3 mps 727 mmHg 51%
    12:00 +11°C° 0 mm 3 mps 726 mmHg 48%
    13:00 +11°C° 0 mm 3 mps 726 mmHg 47%
    14:00 +12°C° 0 mm 3 mps 726 mmHg 46%
    15:00 +12°C° 0 mm 3 mps 726 mmHg 45%
    16:00 +11°C° 0 mm 3 mps 726 mmHg 47%
    17:00 +10°C° 0 mm 4 mps 727 mmHg 49%
    18:00 +7°C° 0 mm 4 mps 727 mmHg 51%
    19:00 +7°C° 0 mm 4 mps 727 mmHg 49%
    20:00 +7°C° 0 mm 4 mps 727 mmHg 47%
    21:00 +7°C° 0 mm 4 mps 727 mmHg 46%
    22:00 +7°C° 0 mm 4 mps 727 mmHg 45%
    23:00 +7°C° 0 mm 3 mps 727 mmHg 44%

    Day after tomorrow, 22 January, Monday

    Time Temperature Precipitation Wind Pressure Humidity
    00:00 +7°C° 0 mm 3 mps 727 mmHg 44%
    01:00 +7°C° 0 mm 3 mps 727 mmHg 43%
    02:00 +7°C° 0 mm 3 mps 726 mmHg 43%
    03:00 +7°C° 0 mm 2 mps 726 mmHg 43%
    04:00 +6°C° 0 mm 2 mps 726 mmHg 43%
    05:00 +6°C° 0 mm 2 mps 726 mmHg 43%
    06:00 +6°C° 0 mm 2 mps 725 mmHg 43%
    07:00 +8°C° 0 mm 1 mps 725 mmHg 42%
    08:00 +9°C° 0 mm 1 mps 725 mmHg 41%
    09:00 +9°C° 0 mm 1 mps 725 mmHg 41%
    10:00 +10°C° 0 mm 1 mps 724 mmHg 39%
    11:00 +11°C° 0 mm 1 mps 723 mmHg 38%
    12:00 +12°C° 0 mm 1 mps 723 mmHg 36%
    13:00 +12°C° 0 mm 1 mps 722 mmHg 37%
    14:00 +12°C° 0 mm 1 mps 722 mmHg 38%
    15:00 +12°C° 0 mm 1 mps 721 mmHg 39%
    16:00 +11°C° 0 mm 1 mps 721 mmHg 41%
    17:00 +10°C° 0 mm 1 mps 721 mmHg 43%
    18:00 +8°C° 0 mm 2 mps 721 mmHg 46%
    19:00 +8°C° 0 mm 2 mps 721 mmHg 44%
    20:00 +7°C° 0 mm 2 mps 721 mmHg 43%
    21:00 +7°C° 0 mm 2 mps 721 mmHg 42%
    22:00 +7°C° 0 mm 3 mps 721 mmHg 40%
    23:00 +7°C° 0 mm 3 mps 721 mmHg 38%

    23 January, Tuesday

    Time Temperature Precipitation Wind Pressure Humidity
    00:00 +5°C° 0 mm 3 mps 721 mmHg 37%
    01:00 +5°C° 0 mm 3 mps 721 mmHg 36%
    02:00 +5°C° 0 mm 3 mps 720 mmHg 36%
    03:00 +5°C° 0 mm 3 mps 720 mmHg 35%
    04:00 +5°C° 0 mm 4 mps 720 mmHg 36%
    05:00 +5°C° 0 mm 4 mps 720 mmHg 36%
    06:00 +5°C° 0 mm 4 mps 720 mmHg 36%
    07:00 +6°C° 0 mm 4 mps 720 mmHg 36%
    08:00 +6°C° 0 mm 4 mps 720 mmHg 36%
    09:00 +8°C° 0 mm 3 mps 720 mmHg 35%
    10:00 +9°C° 0 mm 3 mps 720 mmHg 33%
    11:00 +11°C° 0 mm 3 mps 720 mmHg 31%
    12:00 +12°C° 0 mm 3 mps 719 mmHg 28%
    13:00 +12°C° 0 mm 3 mps 719 mmHg 29%
    14:00 +12°C° 0 mm 3 mps 719 mmHg 29%
    15:00 +13°C° 0 mm 3 mps 719 mmHg 30%
    16:00 +12°C° 0 mm 3 mps 720 mmHg 33%
    17:00 +12°C° 0 mm 2 mps 720 mmHg 35%
    18:00 +9°C° 0 mm 2 mps 720 mmHg 38%
    19:00 +9°C° 0 mm 2 mps 720 mmHg 39%
    20:00 +9°C° 0 mm 2 mps 720 mmHg 39%
    21:00 +9°C° 0 mm 2 mps 720 mmHg 40%
    22:00 +9°C° 0 mm 2 mps 720 mmHg 41%
    23:00 +9°C° 0 mm 2 mps 720 mmHg 42%

    24 January, Wednesday

    Time Temperature Precipitation Wind Pressure Humidity
    00:00 +8°C° 0 mm 2 mps 720 mmHg 43%
    01:00 +8°C° 0 mm 3 mps 720 mmHg 44%
    02:00 +8°C° 0 mm 3 mps 720 mmHg 45%
    03:00 +8°C° 0 mm 3 mps 720 mmHg 47%
    04:00 +7°C° 0 mm 3 mps 721 mmHg 48%
    05:00 +6°C° 0 mm 4 mps 721 mmHg 50%
    06:00 +6°C° 0 mm 4 mps 721 mmHg 52%
    07:00 +6°C° 0 mm 4 mps 722 mmHg 51%
    08:00 +7°C° 0 mm 4 mps 722 mmHg 49%
    09:00 +7°C° 0 mm 5 mps 723 mmHg 48%
    10:00 +8°C° 0 mm 5 mps 723 mmHg 47%
    11:00 +9°C° 0 mm 5 mps 723 mmHg 45%
    12:00 +10°C° 0 mm 5 mps 723 mmHg 43%
    13:00 +10°C° 0 mm 5 mps 723 mmHg 43%
    14:00 +11°C° 0 mm 4 mps 723 mmHg 44%
    15:00 +11°C° 0 mm 4 mps 723 mmHg 44%
    16:00 +10°C° 0 mm 4 mps 724 mmHg 48%
    17:00 +10°C° 0 mm 3 mps 724 mmHg 51%
    18:00 +9°C° 0 mm 2 mps 725 mmHg 55%
    19:00 +8°C° 0.1 mm 2 mps 725 mmHg 57%
    20:00 +8°C° 0.1 mm 2 mps 726 mmHg 58%
    21:00 +8°C° 0.1 mm 2 mps 726 mmHg 60%
    22:00 +7°C° 0.1 mm 2 mps 727 mmHg 62%
    23:00 +7°C° 0.1 mm 2 mps 727 mmHg 65%

    25 January, Thursday

    Time Temperature Precipitation Wind Pressure Humidity
    00:00 +8°C° 0.1 mm 1 mps 727 mmHg 67%
    01:00 +7°C° 0 mm 1 mps 728 mmHg 70%
    02:00 +7°C° 0 mm 1 mps 728 mmHg 73%
    03:00 +6°C° 0 mm 1 mps 728 mmHg 75%
    04:00 +6°C° 0 mm 1 mps 728 mmHg 77%
    05:00 +6°C° 0 mm 1 mps 729 mmHg 79%
    06:00 +5°C° 0 mm 1 mps 729 mmHg 80%
    07:00 +6°C° 0 mm 1 mps 730 mmHg 80%
    08:00 +6°C° 0 mm 1 mps 730 mmHg 79%
    09:00 +5°C° 0 mm 2 mps 730 mmHg 78%
    10:00 +6°C° 0 mm 2 mps 730 mmHg 76%
    11:00 +7°C° 0 mm 2 mps 730 mmHg 75%
    12:00 +7°C° 0 mm 3 mps 730 mmHg 73%
    13:00 +7°C° 0 mm 3 mps 730 mmHg 74%
    14:00 +7°C° 0 mm 3 mps 730 mmHg 75%
    15:00 +7°C° 0 mm 3 mps 730 mmHg 75%
    16:00 +5°C° 0 mm 3 mps 730 mmHg 79%
    17:00 +5°C° 0 mm 3 mps 730 mmHg 82%
    18:00 +4°C° 0 mm 3 mps 731 mmHg 85%
    19:00 +4°C° 0 mm 3 mps 731 mmHg 86%
    20:00 +4°C° 0 mm 3 mps 731 mmHg 87%
    21:00 +4°C° 0 mm 3 mps 731 mmHg 88%
    22:00 +4°C° 0.1 mm 3 mps 731 mmHg 88%
    23:00 +3°C° 0.1 mm 3 mps 731 mmHg 88%
    Show more